EXS67T EGNV-EGNV

Flight info

Callsign EXS67T
Flight time 0h 27m
Altitude 3500
Route DCT TD
Aircraft A21N/M-SDE3FGHIRWY/LB1

Departure

Time 2026-05-04 14:59
Airport Teesside International Airport (EGNV)

Arrival

Time 2026-05-04 15:27
Airport Teesside International Airport (EGNV)
Time Latitude Longitude Altitude Speed Heading
2026-05-04 14:45 54.51086 -1.43420 129 ft 0 kts 329°
2026-05-04 14:49 54.51081 -1.43415 129 ft 2 kts 329°
2026-05-04 14:49 54.51069 -1.43402 129 ft 2 kts 329°
2026-05-04 14:50 54.51055 -1.43389 129 ft 2 kts 329°
2026-05-04 14:50 54.51043 -1.43375 129 ft 2 kts 329°
2026-05-04 14:50 54.51029 -1.43363 129 ft 2 kts 355°
2026-05-04 14:50 54.51014 -1.43367 129 ft 2 kts 24°
2026-05-04 14:51 54.51002 -1.43382 129 ft 1 kts 54°
2026-05-04 14:51 54.50999 -1.43391 129 ft 1 kts 62°
2026-05-04 14:51 54.50998 -1.43395 129 ft 0 kts 60°
2026-05-04 14:53 54.50998 -1.43393 129 ft 0 kts 60°
2026-05-04 14:53 54.51012 -1.43354 129 ft 6 kts 60°
2026-05-04 14:53 54.51040 -1.43270 129 ft 8 kts 59°
2026-05-04 14:53 54.51079 -1.43187 129 ft 9 kts 31°
2026-05-04 14:54 54.51137 -1.43122 129 ft 10 kts 45°
2026-05-04 14:54 54.51179 -1.43013 129 ft 11 kts 59°
2026-05-04 14:54 54.51221 -1.42889 129 ft 12 kts 60°
2026-05-04 14:54 54.51262 -1.42757 129 ft 12 kts 65°
2026-05-04 14:55 54.51318 -1.42635 129 ft 13 kts 36°
2026-05-04 14:55 54.51405 -1.42575 129 ft 13 kts 12°
2026-05-04 14:55 54.51500 -1.42541 129 ft 14 kts 12°
2026-05-04 14:55 54.51598 -1.42505 129 ft 14 kts 12°
2026-05-04 14:56 54.51697 -1.42469 129 ft 14 kts 12°
2026-05-04 14:56 54.51785 -1.42412 129 ft 12 kts 45°
2026-05-04 14:56 54.51807 -1.42270 129 ft 12 kts 91°
2026-05-04 14:56 54.51803 -1.42112 129 ft 13 kts 93°
2026-05-04 14:57 54.51799 -1.41945 129 ft 14 kts 93°
2026-05-04 14:57 54.51770 -1.41803 129 ft 12 kts 128°
2026-05-04 14:57 54.51726 -1.41746 129 ft 3 kts 156°
2026-05-04 14:57 54.51720 -1.41741 129 ft 0 kts 156°
2026-05-04 14:58 54.51709 -1.41733 129 ft 4 kts 156°
2026-05-04 14:58 54.51654 -1.41703 129 ft 10 kts 166°
2026-05-04 14:58 54.51606 -1.41677 129 ft 5 kts 193°
2026-05-04 14:58 54.51571 -1.41720 129 ft 6 kts 227°
2026-05-04 14:59 54.51428 -1.41985 129 ft 73 kts 227°
2026-05-04 14:59 54.50887 -1.43005 140 ft 153 kts 229°
2026-05-04 14:59 54.49446 -1.45860 1864 ft 167 kts 233°
2026-05-04 15:00 54.49118 -1.47815 2653 ft 185 kts 270°
2026-05-04 15:00 54.49620 -1.49968 3221 ft 214 kts 307°
2026-05-04 15:00 54.50948 -1.51276 3430 ft 229 kts 351°
2026-05-04 15:01 54.53513 -1.48766 3511 ft 227 kts 71°
2026-05-04 15:01 54.53979 -1.46185 3512 ft 225 kts 81°
2026-05-04 15:01 54.54333 -1.43566 3507 ft 225 kts 80°
2026-05-04 15:01 54.54719 -1.40960 3506 ft 225 kts 78°
2026-05-04 15:02 54.55150 -1.38363 3505 ft 225 kts 77°
2026-05-04 15:02 54.55610 -1.35772 3505 ft 228 kts 76°
2026-05-04 15:02 54.56095 -1.33138 3504 ft 229 kts 73°
2026-05-04 15:02 54.56882 -1.30766 3501 ft 231 kts 52°
2026-05-04 15:03 54.57962 -1.28756 3504 ft 231 kts 46°
2026-05-04 15:03 54.59126 -1.26784 3504 ft 232 kts 44°
2026-05-04 15:03 54.60484 -1.25393 3489 ft 232 kts 11°
2026-05-04 15:03 54.62058 -1.25632 3498 ft 227 kts 332°
2026-05-04 15:04 54.63206 -1.27350 3502 ft 218 kts 295°
2026-05-04 15:04 54.63580 -1.29803 3504 ft 210 kts 262°
2026-05-04 15:04 54.63135 -1.32137 3504 ft 203 kts 232°
2026-05-04 15:04 54.62075 -1.33660 3505 ft 201 kts 202°
2026-05-04 15:05 54.60706 -1.34002 3504 ft 203 kts 173°
2026-05-04 15:05 54.59374 -1.33153 3510 ft 206 kts 157°
2026-05-04 15:05 54.58033 -1.32337 3498 ft 203 kts 176°
2026-05-04 15:05 54.56677 -1.32738 3498 ft 201 kts 209°
2026-05-04 15:06 54.55697 -1.34455 3502 ft 205 kts 243°
2026-05-04 15:06 54.55461 -1.36881 3503 ft 213 kts 276°
2026-05-04 15:06 54.56094 -1.39211 3502 ft 222 kts 311°
2026-05-04 15:07 54.59018 -1.40169 3502 ft 232 kts 28°
2026-05-04 15:07 54.60237 -1.38403 3513 ft 231 kts 50°
2026-05-04 15:07 54.61288 -1.36297 3508 ft 231 kts 52°
2026-05-04 15:07 54.62325 -1.34195 3506 ft 231 kts 51°
2026-05-04 15:08 54.63386 -1.32108 3505 ft 231 kts 50°
2026-05-04 15:08 54.64305 -1.29910 3491 ft 227 kts 73°
2026-05-04 15:08 54.64381 -1.27271 3496 ft 218 kts 112°
2026-05-04 15:08 54.63567 -1.25170 3502 ft 209 kts 147°
2026-05-04 15:09 54.62262 -1.24243 3504 ft 203 kts 178°
2026-05-04 15:09 54.60898 -1.24674 3504 ft 201 kts 208°
2026-05-04 15:09 54.59824 -1.26219 3511 ft 203 kts 226°
2026-05-04 15:10 54.57930 -1.29822 3505 ft 202 kts 226°
2026-05-04 15:10 54.56988 -1.31604 3505 ft 202 kts 226°
2026-05-04 15:10 54.55346 -1.35529 3490 ft 208 kts 259°
2026-05-04 15:11 54.55540 -1.38002 3500 ft 217 kts 292°
2026-05-04 15:11 54.56554 -1.39973 3501 ft 226 kts 328°
2026-05-04 15:11 54.58065 -1.40620 3501 ft 232 kts
2026-05-04 15:11 54.59538 -1.39613 3503 ft 232 kts 42°
2026-05-04 15:12 54.60661 -1.37602 3511 ft 231 kts 52°
2026-05-04 15:12 54.61686 -1.35504 3507 ft 231 kts 52°
2026-05-04 15:12 54.62730 -1.33400 3505 ft 231 kts 51°
2026-05-04 15:12 54.63784 -1.31329 3505 ft 231 kts 53°
2026-05-04 15:13 54.64458 -1.28894 3489 ft 224 kts 89°
2026-05-04 15:13 54.64148 -1.26333 3499 ft 214 kts 127°
2026-05-04 15:13 54.63092 -1.24649 3503 ft 206 kts 159°
2026-05-04 15:13 54.61710 -1.24247 3503 ft 202 kts 191°
2026-05-04 15:14 54.60439 -1.25185 3499 ft 202 kts 219°
2026-05-04 15:14 54.59454 -1.26912 3497 ft 203 kts 226°
2026-05-04 15:14 54.58496 -1.28742 3490 ft 203 kts 226°
2026-05-04 15:14 54.57552 -1.30536 3485 ft 203 kts 226°
2026-05-04 15:15 54.56605 -1.32323 3482 ft 203 kts 226°
2026-05-04 15:15 54.55670 -1.34173 3477 ft 204 kts 235°
2026-05-04 15:15 54.55311 -1.36536 3470 ft 212 kts 272°
2026-05-04 15:16 54.57105 -1.40437 3474 ft 229 kts 342°
2026-05-04 15:16 54.58692 -1.40438 3475 ft 233 kts 20°
2026-05-04 15:16 54.61069 -1.36796 3482 ft 231 kts 52°
2026-05-04 15:17 54.62102 -1.34672 3480 ft 231 kts 52°
2026-05-04 15:17 54.64162 -1.30417 3471 ft 229 kts 65°
2026-05-04 15:17 54.64447 -1.27788 3468 ft 220 kts 105°
2026-05-04 15:18 54.63793 -1.25521 3475 ft 211 kts 140°
2026-05-04 15:18 54.62563 -1.24320 3477 ft 204 kts 171°
2026-05-04 15:18 54.61173 -1.24461 3478 ft 202 kts 202°
2026-05-04 15:19 54.59060 -1.27651 3481 ft 203 kts 226°
2026-05-04 15:19 54.58115 -1.29460 3479 ft 203 kts 226°
2026-05-04 15:19 54.56215 -1.33054 3478 ft 203 kts 226°
2026-05-04 15:20 54.55413 -1.35051 3464 ft 207 kts 251°
2026-05-04 15:20 54.55432 -1.37561 3472 ft 216 kts 286°
2026-05-04 15:20 54.56300 -1.39686 3474 ft 225 kts 321°
2026-05-04 15:20 54.57776 -1.40626 3475 ft 231 kts 358°
2026-05-04 15:21 54.59296 -1.39913 3476 ft 232 kts 36°
2026-05-04 15:21 54.60468 -1.37981 3485 ft 231 kts 51°
2026-05-04 15:21 54.62546 -1.33767 3479 ft 231 kts 51°
2026-05-04 15:22 54.63611 -1.31678 3478 ft 231 kts 51°
2026-05-04 15:22 54.64415 -1.29333 3462 ft 226 kts 83°
2026-05-04 15:22 54.63316 -1.24821 3200 ft 212 kts 153°
2026-05-04 15:23 54.61928 -1.24230 2795 ft 210 kts 188°
2026-05-04 15:23 54.60611 -1.25116 2659 ft 200 kts 214°
2026-05-04 15:23 54.59568 -1.26665 2414 ft 198 kts 225°
2026-05-04 15:23 54.58662 -1.28405 2210 ft 191 kts 227°
2026-05-04 15:24 54.57005 -1.31599 1699 ft 167 kts 225°
2026-05-04 15:24 54.55561 -1.34280 1268 ft 139 kts 225°
2026-05-04 15:25 54.54943 -1.35431 1074 ft 127 kts 225°
2026-05-04 15:25 54.54350 -1.36535 921 ft 125 kts 225°
2026-05-04 15:25 54.53755 -1.37644 765 ft 125 kts 225°
2026-05-04 15:26 54.52584 -1.39833 439 ft 124 kts 225°
2026-05-04 15:26 54.51992 -1.40939 269 ft 124 kts 225°
2026-05-04 15:26 54.50958 -1.42865 129 ft 71 kts 227°
2026-05-04 15:27 54.50727 -1.43297 129 ft 35 kts 227°
2026-05-04 15:27 54.50568 -1.43681 129 ft 11 kts 308°
2026-05-04 15:28 54.50660 -1.43759 129 ft 7 kts 348°
2026-05-04 15:28 54.50717 -1.43772 129 ft 8 kts 358°
2026-05-04 15:28 54.50847 -1.43712 129 ft 10 kts 34°
2026-05-04 15:29 54.50907 -1.43627 129 ft 11 kts 44°
2026-05-04 15:30 54.51101 -1.43164 129 ft 8 kts 31°
2026-05-04 15:30 54.51181 -1.43137 129 ft 2 kts 340°
2026-05-04 15:31 54.51189 -1.43123 129 ft 1 kts 99°